Theta_e
313 315 315 317 317 317 319 320 321 320 321 319 327 337 334 336 336 336 336 336 336 335 334 333 332 332 332 332 332 332 332 335 333 333 332 332 332 332 332 328 330 331 331 330
317 316 316 316 314 315 317 318 320 320 320 328 332 336 337 336 337 337 336 336 335 335 334 333 331 330 331 332 331 333 335 335 333 331 332 333 333 332 331 328 331 331 329 329
319 318 317 317 316 315 316 317 320 322 320 330 333 338 335 335 336 336 336 336 335 335 334 332 329 330 330 330 330 334 335 334 332 331 332 332 332 331 330 331 331 330 329 329
323 319 316 315 324 325 326 319 330 326 329 332 335 334 333 331 333 335 335 335 335 334 333 329 329 329 330 329 329 334 334 334 333 333 333 333 333 331 331 330 330 331 330 328
323 323 320 324 322 323 326 333 332 330 332 333 333 330 331 331 331 333 334 333 333 334 331 329 329 329 329 328 328 333 334 334 334 333 333 332 333 332 330 330 330 331 329 326
320 323 325 318 318 319 322 334 329 331 331 334 332 333 332 331 330 331 333 333 334 334 330 328 328 329 329 328 328 330 333 334 333 332 333 332 332 331 331 331 331 331 329 325
320 323 321 316 317 321 332 332 326 329 329 330 332 329 329 330 332 331 332 333 335 333 329 328 328 329 329 327 327 329 333 333 333 333 334 333 333 333 331 331 330 330 328 327
320 323 323 314 317 323 322 322 325 323 326 328 328 329 330 331 332 333 333 334 334 332 330 329 328 328 328 327 327 329 333 333 333 333 334 333 333 332 332 330 329 329 328 328
315 317 315 315 316 316 317 320 320 321 323 324 327 328 331 332 331 333 332 332 335 332 330 330 328 328 329 327 326 329 333 333 334 334 333 332 333 334 332 331 329 328 328 328
316 316 314 315 314 314 316 317 318 319 321 322 324 324 326 329 332 331 333 333 334 332 330 329 328 328 329 327 326 329 334 334 334 335 335 333 333 333 333 332 331 330 329 329
315 314 315 315 314 315 316 315 318 317 319 320 321 323 323 325 327 329 332 333 334 333 330 330 329 328 330 327 327 329 333 333 333 332 334 336 334 335 334 334 333 332 331 329
315 313 313 313 314 314 314 314 316 317 318 319 321 322 322 323 325 327 327 330 334 335 332 330 329 328 330 326 326 330 333 332 334 332 332 332 331 329 331 329 333 333 331 329
312 311 312 312 312 312 312 313 314 316 318 319 320 321 321 323 324 325 329 333 334 335 334 331 329 329 329 328 327 330 332 333 333 334 333 332 326 323 322 323 333 334 332 330
311 311 313 313 312 312 312 313 313 316 318 318 319 321 321 321 324 325 329 330 334 336 336 331 330 329 328 330 328 330 331 333 332 332 333 332 331 325 323 323 324 327 333 331
311 311 312 313 313 313 313 313 314 315 316 319 319 321 320 320 323 324 326 328 331 334 336 335 331 329 329 329 328 330 331 330 330 332 331 333 332 328 325 323 323 325 328 330
312 313 314 315 315 315 315 315 317 318 318 318 318 319 319 320 322 324 324 325 328 334 337 334 335 330 328 328 328 330 329 330 330 329 332 331 331 330 326 325 324 322 325 326
311 312 313 314 314 315 315 315 316 317 318 319 318 318 318 320 321 323 323 324 330 329 331 329 331 335 329 327 328 329 328 329 329 329 327 330 330 329 330 326 325 322 323 325
311 312 312 312 313 314 313 314 314 314 315 316 317 319 319 319 320 321 321 324 331 327 326 328 333 335 334 329 328 329 329 328 328 327 327 327 327 328 331 330 326 324 322 323
311 311 312 310 311 311 311 311 311 312 313 313 315 318 318 319 320 319 320 323 329 325 324 329 323 325 326 328 330 328 330 329 328 327 326 327 326 326 327 328 329 327 324 322
312 311 312 312 311 311 310 310 310 310 310 310 310 311 312 313 314 317 319 325 322 318 321 322 319 318 317 324 330 330 329 330 328 328 327 326 327 325 325 326 326 327 328 324
313 311 312 312 311 311 309 308 308 308 307 307 308 308 308 309 309 310 316 313 311 313 316 320 319 318 317 317 329 331 331 330 330 329 328 327 326 327 325 325 326 325 325 326
310 309 309 311 311 310 310 309 308 307 306 306 305 306 306 306 306 307 309 308 308 311 314 316 319 320 319 317 319 329 332 331 332 331 329 328 327 327 327 325 324 324 325 325
311 310 310 311 311 310 310 310 307 306 306 306 305 304 304 305 305 303 304 304 306 310 315 315 315 317 318 319 318 321 329 332 333 332 332 331 329 328 328 326 325 324 324 325
310 310 311 310 309 309 308 307 308 307 306 304 303 303 302 302 302 302 300 302 304 307 312 311 311 316 318 318 318 320 324 330 331 332 334 333 331 331 330 329 327 325 326 325
309 311 310 310 309 308 308 308 306 305 305 304 302 302 302 301 300 300 299 299 301 302 305 306 307 310 310 311 316 319 323 321 326 332 333 333 333 332 332 331 329 329 326 326
309 310 309 309 309 309 307 306 305 304 304 303 301 301 300 299 298 298 297 296 296 297 299 300 301 302 303 305 307 312 315 318 319 324 326 326 326 327 329 331 332 331 330 329
308 311 310 310 310 308 307 306 305 303 303 302 301 300 299 298 297 296 295 295 294 294 294 295 296 296 298 299 300 301 303 304 306 308 310 313 316 316 318 321 325 329 331 332
Wind_Speed
14 18 17 14 16 18 13 16 10 13 12 16 11 3 19 20 19 19 19 19 17 15 14 12 16 23 25 22 24 19 21 20 18 15 11 11 11 11 7 12 13 17 13 11
15 18 14 13 15 17 18 22 17 21 20 5 3 10 14 18 19 19 19 19 17 17 15 15 16 21 25 24 24 24 23 22 18 15 11 11 12 10 9 11 17 13 11 14
5 5 10 3 14 17 14 18 18 16 22 5 11 14 4 12 16 18 18 20 18 17 15 14 20 26 23 27 24 27 22 23 21 18 14 13 12 11 11 17 17 15 15 12
4 4 2 5 14 11 11 16 20 19 12 18 14 16 15 11 8 15 18 18 15 14 13 21 29 29 25 28 23 28 21 22 23 19 15 15 15 13 13 15 16 16 14 11
3 3 3 4 6 9 8 8 20 19 16 13 18 19 4 10 9 3 16 14 14 20 25 25 29 31 30 26 23 25 20 23 25 19 16 19 17 16 15 16 17 15 16 13
3 2 2 4 18 19 14 0 19 16 14 4 5 10 2 5 7 9 16 16 15 26 27 28 31 31 30 25 24 20 25 25 25 23 20 21 18 16 13 13 18 20 16 14
6 2 2 12 23 18 5 3 16 13 8 4 3 3 3 4 8 7 5 16 27 29 24 27 35 31 26 26 21 21 27 27 25 23 21 18 17 16 15 16 18 19 17 13
5 2 4 16 7 9 9 11 9 11 7 7 7 7 6 7 8 9 8 7 26 21 23 29 36 31 24 23 23 20 28 27 27 25 22 21 20 18 17 18 17 18 16 13
4 2 3 10 11 11 10 14 9 13 11 7 8 8 7 6 7 3 8 6 22 23 22 26 33 32 23 28 22 25 31 28 29 28 24 23 24 21 21 20 20 19 19 16
2 6 6 12 15 19 19 14 13 16 14 11 9 12 11 12 11 6 4 1 5 22 18 19 30 32 25 29 23 29 31 30 30 31 26 23 23 22 23 23 20 18 17 17
2 8 1 2 7 13 17 14 14 15 12 14 9 10 11 12 13 12 10 5 2 16 20 23 30 32 25 31 24 31 32 32 29 30 26 24 22 21 21 23 23 24 21 23
3 9 7 10 4 11 16 14 12 10 12 13 10 9 12 12 12 12 12 17 8 18 20 26 30 32 27 33 27 32 27 28 27 29 27 25 19 12 15 15 27 23 22 24
3 7 9 10 9 9 12 17 14 13 9 11 9 9 10 11 12 16 17 20 11 3 20 28 29 30 33 34 30 36 28 27 29 29 27 26 22 21 17 12 20 26 23 22
9 9 7 9 7 14 11 13 9 10 6 7 11 12 11 11 13 13 9 19 24 16 14 25 30 30 35 32 31 35 34 34 31 29 28 28 25 24 23 21 19 20 28 26
9 7 8 9 10 8 9 9 10 11 10 7 11 9 10 10 11 11 19 24 25 23 14 16 25 30 36 35 34 35 35 33 31 28 30 28 29 27 25 24 23 22 22 27
8 8 9 9 10 12 13 14 13 13 15 11 7 7 12 15 16 17 21 24 18 12 20 16 4 28 36 34 35 35 34 33 32 30 26 30 30 27 25 26 26 27 26 28
6 9 9 10 10 10 8 9 10 11 12 11 15 19 12 12 14 14 19 23 20 20 20 24 25 6 32 36 40 33 31 33 35 29 29 29 28 27 26 28 26 28 31 35
2 2 4 5 6 8 9 11 10 11 11 18 20 18 14 7 7 9 17 23 20 18 25 26 27 24 7 18 32 32 33 33 36 31 27 27 29 29 33 27 29 26 28 35
5 9 7 9 7 6 8 9 12 15 16 18 17 13 19 19 16 16 17 9 10 11 24 23 30 30 25 21 9 26 31 32 32 30 32 26 28 34 31 34 29 31 29 31
9 12 11 5 11 10 7 12 13 14 16 17 18 19 17 24 26 27 24 11 21 24 23 23 29 31 28 26 18 2 23 29 31 31 28 31 26 30 33 34 36 32 34 33
7 10 8 5 8 12 13 14 14 15 19 21 19 18 18 21 23 25 21 10 29 37 34 24 26 27 27 28 20 19 15 14 26 28 28 29 29 26 32 35 34 36 35 36
6 7 7 13 9 9 9 11 16 18 17 18 20 21 20 21 25 21 17 19 29 35 36 30 28 28 24 25 20 18 17 17 8 22 31 32 31 30 30 35 35 34 36 37
5 10 12 11 10 11 16 14 15 14 16 20 19 21 19 16 18 19 12 30 30 32 30 31 34 28 26 24 24 18 16 17 18 18 12 21 26 28 28 33 35 36 37 39
5 13 15 15 15 13 7 16 12 18 17 20 21 20 20 18 18 20 21 24 27 28 25 35 35 32 28 29 27 24 19 16 15 18 18 18 12 15 27 33 32 36 40 41
1 15 17 14 8 6 6 12 16 18 18 19 21 23 23 22 20 22 22 25 25 28 25 30 34 33 33 31 32 32 20 19 19 19 21 24 25 22 17 24 40 33 37 39
14 8 14 14 11 11 11 12 13 16 16 15 18 21 22 23 24 23 24 27 26 26 26 27 30 33 31 32 32 32 37 36 34 28 26 26 26 26 27 26 14 8 21 29
15 16 14 13 17 15 13 18 15 13 15 16 14 19 22 23 26 26 26 26 25 26 25 26 27 29 30 31 33 33 32 32 36 35 31 29 29 29 29 27 26 22 14 10
Wind_Direction
251 265 277 253 278 296 306 289 262 237 240 235 257 142 145 141 137 138 144 143 147 142 148 143 150 151 162 167 170 174 163 155 149 150 155 162 178 176 197 174 150 140 129 119
280 267 261 252 267 283 282 281 281 255 256 345 39 117 129 139 142 145 148 147 147 147 151 150 152 152 166 168 171 154 159 149 147 145 158 164 168 167 119 167 147 138 127 127
266 181 153 235 250 256 261 263 262 270 236 189 65 24 12 137 144 150 150 149 151 152 151 151 149 158 164 160 154 158 158 152 158 154 157 161 160 156 141 141 144 135 132 132
265 125 182 33 18 346 293 279 315 276 84 7 135 91 21 28 136 146 146 153 147 149 143 149 155 161 157 156 154 161 158 154 162 157 162 162 162 161 153 148 143 139 141 136
269 232 322 60 5 344 336 341 346 90 68 33 311 94 18 7 19 122 151 151 147 143 146 148 150 156 153 156 164 155 162 155 158 158 151 161 160 161 163 160 154 153 145 134
286 323 245 325 327 326 313 266 343 355 67 39 358 75 283 316 11 18 154 145 140 140 146 145 152 157 154 159 174 166 170 162 162 162 157 162 159 158 156 152 155 155 143 137
258 197 161 331 336 313 119 354 324 322 41 328 28 164 223 71 15 18 28 140 140 144 147 150 155 158 156 168 182 184 169 159 164 164 155 158 156 152 147 146 143 144 137 131
317 43 24 343 347 30 314 312 295 307 17 5 348 20 44 60 54 0 30 126 139 143 146 150 157 160 159 172 190 176 157 157 159 159 153 157 149 147 150 150 153 154 148 136
7 18 355 354 349 316 322 273 294 8 7 359 357 2 17 47 78 354 13 49 147 146 146 152 159 166 163 178 191 170 156 155 153 156 159 159 152 153 152 158 159 157 159 156
348 28 53 18 342 335 319 325 350 2 357 351 15 3 8 28 21 32 14 343 161 149 151 152 162 171 177 176 192 169 145 156 159 154 157 160 165 167 165 165 164 167 167 163
257 349 226 287 343 308 306 338 352 3 346 350 2 2 7 12 18 7 4 345 69 163 160 159 163 175 179 178 190 166 151 157 153 157 162 166 177 182 184 183 179 178 177 169
329 344 318 315 153 298 316 330 340 355 337 346 10 13 8 4 10 359 342 328 357 174 172 165 165 175 179 180 192 166 153 162 158 161 169 171 167 158 184 194 199 192 184 175
287 304 306 321 350 322 319 317 340 325 330 353 356 21 6 3 358 342 339 356 324 31 188 170 169 173 180 184 191 173 164 166 169 165 172 178 173 149 138 125 162 180 176 176
343 337 323 337 307 306 296 296 317 331 346 358 346 23 3 1 344 339 346 347 351 339 194 186 173 175 181 187 190 178 172 174 175 178 176 183 188 177 161 146 138 156 180 179
345 319 296 296 291 310 357 11 1 356 348 354 1 17 1 347 342 337 359 355 356 358 12 189 190 179 182 186 189 181 177 178 182 183 188 189 193 191 184 175 164 158 168 180
352 359 358 0 6 5 3 359 3 9 3 345 357 7 336 334 344 347 0 0 358 351 9 26 232 193 179 185 185 183 181 185 187 193 191 194 194 193 183 182 177 175 176 179
20 8 3 5 4 2 355 353 358 357 346 359 359 334 341 339 345 352 351 350 1 15 19 19 19 172 185 187 185 178 182 186 192 197 199 196 200 194 195 185 183 185 188 189
78 78 358 358 4 25 17 14 3 352 357 354 346 344 333 347 330 333 341 2 12 1 21 18 30 38 137 194 184 177 179 187 193 197 204 201 202 201 202 191 190 188 193 199
86 35 31 10 7 20 28 12 2 358 7 347 337 346 2 354 338 347 341 336 27 3 13 39 34 38 32 30 200 190 182 186 192 195 204 209 207 205 207 206 194 195 194 194
117 88 89 329 357 45 34 29 9 9 11 6 6 8 5 0 359 357 341 21 34 4 14 32 30 28 15 15 20 203 202 191 193 195 198 207 217 205 207 213 212 205 199 198
120 113 133 74 58 48 54 49 35 29 23 22 17 10 0 354 355 2 14 15 355 2 8 4 18 19 11 6 13 8 358 227 198 199 204 207 211 219 208 210 212 212 216 210
87 80 80 83 57 21 30 45 58 41 28 28 23 13 10 5 355 360 10 14 347 355 359 359 354 357 358 359 5 1 355 350 359 205 199 206 211 215 215 209 212 215 216 222
58 105 93 93 79 44 33 32 76 60 50 33 23 23 12 9 6 359 349 348 352 356 3 2 1 350 347 344 350 351 350 353 347 357 354 229 221 220 221 212 211 214 217 220
37 122 102 95 77 62 35 12 55 46 54 43 28 29 25 13 5 3 352 350 359 4 17 8 8 17 10 3 342 338 340 349 356 359 1 355 326 230 238 237 227 217 220 223
286 116 114 106 100 102 58 40 61 44 33 39 28 24 23 18 15 4 3 2 6 13 12 13 12 16 14 7 7 5 339 344 350 1 9 7 4 13 337 277 244 236 224 223
87 143 131 134 139 104 84 68 81 50 27 34 25 21 19 18 17 17 15 14 14 18 19 17 17 19 17 17 17 15 25 30 27 25 31 26 21 18 2 5 359 268 247 235
168 155 153 143 132 122 100 86 76 74 60 51 35 24 19 20 20 24 24 22 21 22 23 21 21 22 23 23 23 20 22 21 23 21 18 15 14 15 9 7 1 4 360 339